Regional Weather Roundup
Issued by NWS

Home | Current Version | Previous Version | Text Only | Print | Product List | Glossary Off
Versions: 1 2 3 4 5 6 7 8 9 10 11 12 13 14 15 16 17 18 19 20 21 22 23 24 25 26 27 28 29 30 31 32 33 34 35 36 37 38 39 40 41 42 43 44 45 46 47 48 49 50

000
ASUS43 KLSX 251257
RWRMO

WEATHER SUMMARY FOR MISSOURI
NATIONAL WEATHER SERVICE SPRINGFIELD MO
800 AM CDT WED APR 25 2018

NOTE: "FAIR" INDICATES FEW OR NO CLOUDS BELOW 12,000 FEET WITH NO
       SIGNIFICANT WEATHER AND/OR OBSTRUCTIONS TO VISIBILITY.
       CURRENT SKY AND/OR WEATHER CONDITIONS ARE NOT AVAILABLE FOR
       CHILLICOTHE AND FARMINGTON.

MOZ001>031-035>038-043-044-053-054-251400-
...NORTHERN AND WESTERN MISSOURI...

CITY           SKY/WX    TMP DP  RH WIND       PRES   REMARKS
KANSAS CTY INT LGT RAIN  50  45  83 NW6       30.16R
KANSAS C DTWN  LGT RAIN  53  44  71 NW5       30.16R
LEE`S SUMMIT   CLOUDY    53  45  74 NW6       30.15R
ST JOSEPH      LGT RAIN  49  47  93 N9        30.17R
CHILLICOTHE      N/A     54  40  59 VRB6      30.14R

$$
MOZ066>068-077>081-088>096-101>105-251400-
...SOUTHWEST MISSOURI...

CITY           SKY/WX    TMP DP  RH WIND       PRES   REMARKS
SPRINGFIELD    CLOUDY    54  46  74 NW10      30.12R
JOPLIN         LGT RAIN  52  51  97 W3        30.18R FOG
BRANSON        PTSUNNY   54  45  71 CALM      30.10R

$$
MOZ032>034-039>042-045>050-055>058-069>072-251400-
...CENTRAL MISSOURI...

CITY           SKY/WX    TMP DP  RH WIND       PRES   REMARKS
COLUMBIA       CLOUDY    55  41  59 N10       30.08R
JEFFERSON CITY CLOUDY    56  43  61 NW3       30.09R
ROLLA          PTSUNNY   52  43  71 N6        30.07R
SEDALIA        CLOUDY    56  45  66 N10       30.11R
WARRENSBURG    CLOUDY    54  41  62 N5        30.13R

$$
MOZ051-052-059>065-251400-
...EAST CENTRAL MISSOURI...

CITY           SKY/WX    TMP DP  RH WIND       PRES   REMARKS
ST LOUIS INTL  CLOUDY    57  45  64 NW7       30.04S
SPIRIT OF STL  PTSUNNY   58  45  62 N3        30.04S
ST CHARLES     MOSUNNY   58  43  57 N14G20    30.03S

$$
MOZ072>076-082>087-097>100-106>115-251400-
...SOUTH CENTRAL AND SOUTHEAST MISSOURI...

CITY           SKY/WX    TMP DP  RH WIND       PRES   REMARKS
CAPE GIRARDEAU FOG       48  48 100 CALM      30.02R VSB<1/4
POPLAR BLUFF   FAIR      56  51  84 NW6       30.02R
WEST PLAINS    MOSUNNY   57  42  57 N6        30.07R

$$



USA.gov is the U.S. government's official web portal to all federal, state and local government web resources and services.